Location: Mountain Grove
(34.0887°N, 86.6172°W)
Time: 00:51:30
(UTC+00:00)

Milstar 3 - Pass Details

Date: 14 July 2020
Orbit: 1101 x 5144 km, 28.2° (Epoch: 13 July)

Event Time Altitude Azimuth Distance (km) Brightness Sun altitude
Rises 01:33:55 0° 269° (W) 4,408 7.0 -7.1°
Reaches altitude 10° 01:36:21 10° 265° (W) 3,660 6.4 -7.5°
Maximum altitude 01:45:41 62° 187° (S) 2,385 4.4 -9.1°
Enters shadow 02:03:26 11° 112° (ESE) 6,592 6.1 -12.1°
